Location: Splawn
(30.9202°N, 96.9858°W)
Time: 00:08:19
(UTC+00:00)

Transit 2A Rocket - Pass Details

Date: 02 March 2020
Orbit: 589 x 914 km, 66.7° (Epoch: 01 April)

Event Time Altitude Azimuth Distance (km) Brightness Sun altitude
Rises 10:21:32 0° 359° (N) 3,216 8.4 -33.1°
Reaches altitude 10° 10:25:42 10° 31° (NNE) 2,374 8.0 -32.2°
Maximum altitude 10:27:37 12° 52° (NE) 2,286 8.1 -31.8°
Drops below altitude 10° 10:29:35 10° 73° (ENE) 2,444 8.5 -31.4°
Sets 10:34:01 0° 104° (ESE) 3,448 9.3 -30.5°
